Location: Mount Kobau Star Party
(49.1167°N, 119.7333°W)
Time: 04:53:28
(UTC-07:00)

Explorer 11/Cluster Stage 4 - All Passes

Search period start: 08 July 2025 00:00
Search period end: 18 July 2025 00:00
Orbit: 463 x 1189 km, 28.8° (Epoch: 08 July)

Date Brightness Start Highest point End Pass type
(mag) Time Alt. Az. Time Alt. Az. Time Alt. Az.
11 Jul - 19:02:45 10° SSW 19:04:15 11° S 19:05:41 10° S daylight
12 Jul - 18:39:23 10° SSW 18:41:40 12° S 18:43:51 10° SSE daylight
13 Jul - 16:30:38 10° S 16:32:20 11° SSE 16:33:58 10° SSE daylight
13 Jul - 18:16:12 10° SSW 18:19:04 13° S 18:21:47 10° SSE daylight
14 Jul - 16:07:19 10° S 16:09:39 12° SSE 16:11:56 10° SSE daylight
14 Jul - 17:53:08 10° SSW 17:56:26 13° S 17:59:33 10° SSE daylight
15 Jul - 15:44:14 10° S 15:46:57 12° SSE 15:49:39 10° SSE daylight
15 Jul - 17:30:08 10° SSW 17:33:46 14° S 17:37:14 10° SSE daylight
16 Jul - 15:21:15 10° S 15:24:15 13° SSE 15:27:13 10° SE daylight
16 Jul - 17:07:13 10° SW 17:11:05 15° S 17:14:49 10° SSE daylight
17 Jul - 14:58:24 10° S 15:01:32 13° SSE 15:04:41 10° SE daylight
17 Jul - 16:44:20 10° SW 16:48:23 15° S 16:52:19 10° SSE daylight
17 Jul - 18:34:31 10° SSW 18:35:04 10° SSW 18:35:37 10° SSW daylight
